Retour au catalogue

STARLINK-4502

ActifCommunicationsVLEO
NORAD 53557·PAYLOAD·🇺🇸 United States

Lancé Aug 19, 2022 depuis Cape Canaveral Space Force Station

Loading…

Prochains Passages (prochaines 24 heures)

TLE

FraisSource: CelesTrak SupGP

Époque: Sep 15, 2026, 01:23 UTC

1 53557C 22101AG  26258.05812500  .00031555  00000+0  19789-2 0  2587
2 53557  53.1589 293.3838 0001176  84.2473 357.6714 15.08818745    18

Suivez STARLINK-4502 en temps réel avec AllMySat

Download on the App Store